Salalah Airport

Jump to: basic info | weather | frequencies | runways | comments

Related pages: nearby airports | nearby navaids | notams | map

Basic information (top)

Codes: SLL OOSA
Location: lon 17.038700, lat 54.091301, elev 73 ft / 22 m msl
Status: medium_airport
Scheduled airline service: yes
Links: Wikipedia Mobile

Weather (top)

Current conditions (rec'd 2014/11/23 20:50Z):

OOSA 232050Z 04002KT CAVOK 24/14 Q1013 NOSIG

Airport forecast (rec'd 2014/11/23 18:00Z):

TAF OOSA 231700Z 2318/2424 VRB03KT CAVOK 
      TEMPO 2320/2403 36005KT 
      BECMG 2406/2408 17010KT 
      BECMG 2415/2417 VRB03KT 9999 FEW025

Frequencies (top)

Verify before use: may be inaccurate or out of date.

APP: 119.1 MHz (APP)
RDR: 119.1 MHz (RDR)
TWR: 118.2 MHz (TWR)

Runways (top)

07/25: 10,965 x 148 ft (3,342 x 45 m) — paved — lighted

17/35 [CLOSED]: 4,196 x 59 ft (1,279 x 18 m) — grass — not lighted

Latest comments (top)

No comments yet for Salalah Airport

More... (top)

See also NOTAMs and nearby airports and navaids, or visit the Salalah Airport page at the main OurAirports website..